Погода в Хыркасах

Россия / Чувашская Республика     56°06′19″N   47°02′07″E
темп.,
°C
ветер,
м/с
пор.,
м/с
влажн.,
%
обл.,
%
осадки,
мм/ч
давл.,
гПа
погр.,
м
5 марта, пт
пт500:00−10зсз449623 0.0 99878
03:00−11зсз349557 0.0 100056
06:00−12сз2297100 0.0 100121
09:00−11сз239694 0.0 1003116
12:00−7з349339 0.0 1004269
15:00−6з589259 0.0 1006519
18:00−9з479591 0.1 1007130
21:00−10зюз469560 0.1 100988
6 марта, сб
сб600:00−9з489698 1.0 1009223
03:00−10зсз499596 1.1 1012290
06:00−16зсз499792 0.1 1013168
09:00−15зсз469585 0.1 1015206
12:00−11зюз469174 0.0 1015288
15:00−9зюз588873 0.0 1014513
18:00−13зюз479567 0.0 1013119
21:00−14з339677 0.1 101322
7 марта, вс
вс700:00−16з339637 0.0 101221
03:00−18з239819 0.0 101220
06:00−19зюз33980 0.0 101125
09:00−15ююз36940 0.0 1010163
12:00−10ю599028 0.0 1007355
15:00−7ю6119062 0.0 1004633
18:00−8ю71392100 0.1 1001735
21:00−7ю81594100 0.8 997803
8 марта, пн
пн800:00−6ю71495100 1.3 994813
03:00−8зюз7149398 2.2 994633
06:00−12зюз6139399 0.1 995325
09:00−10юз7129299 0.3 996454
12:00−8юз7129199 0.1 997660
15:00−6юз61089100 0.4 996769
18:00−7ю3596100 0.1 995130
21:00−10юз3395100 0.1 99540
9 марта, вт
вт900:00−12зсз489798 0.0 997146
03:00−13з6129598 0.1 1000299
06:00−13зсз61194100 0.2 1004359
09:00−14зсз5994100 0.2 1006385
12:00−11зсз4791100 0.1 1009517
15:00−10з4689100 0.1 1010702
18:00−13з3496100 0.2 101176
21:00−13зсз2496100 0.4 101297